Regional Weather Roundup
Issued by NWS

Home | Current Version | Previous Version | Text Only | Print | Product List | Glossary Off
Versions: 1 2 3 4 5 6 7 8 9 10 11 12 13 14 15 16 17 18 19 20 21 22 23 24 25 26 27 28 29 30 31 32 33 34 35 36 37 38 39 40 41 42 43 44 45 46 47 48 49 50

000
ASUS43 KFSD 240610
RWRSD

WEATHER ROUNDUP FOR SOUTH DAKOTA
NATIONAL WEATHER SERVICE SIOUX FALLS SD
100 AM CDT FRI MAR 24 2017

NOTE: "FAIR" INDICATES FEW OR NO CLOUDS BELOW 12,000 FEET WITH NO
SIGNIFICANT WEATHER AND/OR OBSTRUCTIONS TO VISIBILITY.


SDZ001>005-009-010-012>017-240700-
NORTHWEST AND NORTH CENTRAL SOUTH DAKOTA

CITY           SKY/WX    TMP DP  RH WIND       PRES   REMARKS
BUFFALO          N/A     38  36  92 S7        29.85R
FAITH            N/A     40  38  93 N8        29.95R
MOBRIDGE       CLOUDY    45  36  70 N10       29.88R
$$

SDZ012>016-024>037-041>051-057-063-072>074-240700-
SOUTHWEST AND SOUTH CENTRAL SOUTH DAKOTA

CITY           SKY/WX    TMP DP  RH WIND       PRES   REMARKS
RAPID CTY ARPT CLOUDY    41  37  86 N10       29.94R
PIERRE         CLOUDY    42  36  79 N10       29.86R
CUSTER         CLOUDY    37  31  78 NE12G20   29.92R
ELLSWORTH AFB  MOCLDY    42  40  91 N15       29.94R
PHILIP         CLOUDY    41  38  89 CALM      29.90R
PINE RIDGE     CLOUDY    45  39  79 N12       29.90R
SPEARFISH      CLOUDY    39  39 100 SW6       29.96R
WINNER         CLOUDY    45  43  93 N7        29.85R FOG
$$

SDZ004>011-016>023-039-040-240700-
NORTHEAST SOUTH DAKOTA

CITY           SKY/WX    TMP DP  RH WIND       PRES   REMARKS
ABERDEEN       CLOUDY    36  33  89 N6        29.87R
WATERTOWN      CLOUDY    34  34 100 NE5       29.81R FOG     WCI  30
BROOKINGS      CLOUDY    36  36 100 NE7       29.78R FOG
SISSETON         N/A     35  35 100 NE7       29.85S WCI  29
$$

SDZ017-020-022-023-036>040-048>070-240700-
SOUTHEAST SOUTH DAKOTA

CITY           SKY/WX    TMP DP  RH WIND       PRES   REMARKS
SIOUX FALLS    LGT RAIN  43  41  93 N9        29.77R
HURON          CLOUDY    39  39 100 N10       29.83R
CHAMBERLAIN    CLOUDY    43  41  90 N7        29.85R
MITCHELL       CLOUDY    43  43 100 NW13      29.80R FOG
YANKTON        CLOUDY    46  45  93 N3        29.78R
$$

ABBREVIATIONS USED IN REMARKS
   TC - TEMPERATURE IN CELSIUS
  WCI - WIND CHILL INDEX
   HX - HEAT INDEX
  VSB - VISIBILITY




USA.gov is the U.S. government's official web portal to all federal, state and local government web resources and services.